Back to catalog

DELTA 1 DEB

AlivePO
NORAD 42644·DEBRIS·🇺🇸 United States

Launched Jun 12, 1975 from Vandenberg Space Force Base

Loading…

Next Passes (next 24 hours)

TLE

StaleSource: Space-Track

Epoch: Aug 31, 2026, 03:04 UTC

1 42644U 75052MD  26243.12837297  .00000026  00000-0  15843-3 0  9997
2 42644  99.6287 188.4383 0158665 350.5444   9.2696 13.17306319265216

Track DELTA 1 DEB in real time with AllMySat

Download on the App Store